West Memphis, AR

5:26 AM CDT on March 28, 2017 (GMT -0500)
West Memphis Municipal

Weather History for KAWM - January, 2012

Change the Weather History Date:

Monday, January 23, 2012

  Actual Average Record
Temperature  
Mean Temperature 50 °F -  
Max Temperature 60 °F 52 °F 72 °F (1967)
Min Temperature 37 °F 32 °F 7 °F (1963)
Degree Days  
Heating Degree Days 16    
Moisture  
Dew Point 38 °F    
Average Humidity 67    
Maximum Humidity 93    
Minimum Humidity 54    
Precipitation  
Precipitation 0.00 in - - ()
Sea Level Pressure  
Sea Level Pressure 29.96 in    
Wind  
Wind Speed 8 mph (WSW)    
Max Wind Speed 12 mph    
Max Gust Speed 22 mph    
Visibility 10 miles    
Events      
Averages and records for this station are not official NWS values.
T = Trace of Precipitation, MM = Missing Value Source: NWS Daily Summary

Daily Weather History Graph

Daily Weather History Graph

Search for Another Location

Airport or City:

Trip Planner

Search our weather history database for the weather conditions in past years. The results will help you decide how hot, cold, wet, or windy it might be!

Date:

Astronomy

Jan. 23, 2012 Rise Set
Actual Time 7:05 AM CST 5:19 PM CST
Civil Twilight 6:38 AM CST 5:46 PM CST
Nautical Twilight 6:07 AM CST 6:17 PM CST
Astronomical Twilight 5:37 AM CST 6:47 PM CST
Moon 7:03 AM CST (1/23) 6:04 PM CST (1/23)
Length of Visible Light 11h 08m
Length of Day
10h 13m
New Moon, 0% of the Moon is Illuminated
Jan 23
New Moon
Jan 30
First Quarter
Feb 7
Full
Feb 14
Last Quarter
Feb 21
New

Hourly Weather History & Observations

Time (CST) Temp. Windchill Dew Point Humidity Pressure Visibility Wind Dir Wind Speed Gust Speed Precip Events Conditions
12:53 AM 59.0 °F - - N/A% 29.67 in 10.0 mi SSW 9.2 mph - N/A   Overcast
1:53 AM 60.1 °F - 57.9 °F 93% 29.69 in 10.0 mi SSW 10.4 mph 19.6 mph N/A   Overcast
2:53 AM 60.1 °F - 54.0 °F 80% 29.73 in 8.0 mi WSW 6.9 mph - N/A   Overcast
3:53 AM 57.0 °F - 43.0 °F 59% 29.77 in 10.0 mi West 11.5 mph 21.9 mph N/A   Mostly Cloudy
4:53 AM 52.0 °F - 39.0 °F 61% 29.81 in 10.0 mi WSW 11.5 mph 20.7 mph N/A   Clear
5:53 AM 48.9 °F - 37.9 °F 66% 29.85 in 10.0 mi WSW 8.1 mph 19.6 mph N/A   Clear
6:53 AM 46.9 °F - 37.9 °F 71% 29.90 in 10.0 mi West 9.2 mph - N/A   Clear
8:53 AM 46.9 °F - 35.1 °F 63% 29.99 in 10.0 mi WNW 9.2 mph - N/A   Clear
9:53 AM 46.9 °F - 36.0 °F 66% 30.03 in 10.0 mi West 6.9 mph - N/A   Partly Cloudy
11:53 AM 50.0 °F - 36.0 °F 59% 30.01 in 10.0 mi West 9.2 mph - N/A   Clear
12:53 PM 51.1 °F - 35.1 °F 54% 30.00 in 10.0 mi WSW 5.8 mph - N/A   Clear
1:53 PM 51.1 °F - 37.0 °F 59% 29.99 in 10.0 mi WSW 10.4 mph - N/A   Clear
2:53 PM 51.1 °F - 37.0 °F 59% 30.01 in 10.0 mi West 10.4 mph - N/A   Clear
3:53 PM 52.0 °F - 36.0 °F 54% 30.01 in 10.0 mi WSW 5.8 mph - N/A   Clear
4:53 PM 51.1 °F - 35.1 °F 54% 30.03 in 10.0 mi WSW 5.8 mph - N/A   Clear
5:53 PM 48.9 °F - 36.0 °F 61% 30.04 in 10.0 mi WSW 3.5 mph - N/A   Clear
6:53 PM 46.9 °F - 37.0 °F 68% 30.06 in 10.0 mi SSW 4.6 mph - N/A   Clear
7:53 PM 46.9 °F - 37.0 °F 68% 30.08 in 10.0 mi SW 5.8 mph - N/A   Clear
8:53 PM 45.0 °F 42.6 °F 36.0 °F 71% 30.08 in 10.0 mi SW 4.6 mph - N/A   Clear
9:53 PM 43.0 °F 40.3 °F 36.0 °F 76% 30.09 in 10.0 mi SSW 4.6 mph - N/A   Clear
10:53 PM 39.0 °F - 34.0 °F 82% 30.10 in 10.0 mi Calm Calm - N/A   Clear
11:53 PM 37.9 °F - 33.1 °F 83% 30.11 in 10.0 mi Calm Calm - N/A   Clear